Tracking 19846 objects as of 19-Sep-2019
HD Live streaming from Space Station
objects crossing your sky now

COSMOS 375

Track COSMOS 375 now!
10-day predictions
COSMOS 375 is classified as:


NORAD ID: 4598
Int'l Code: 1970-091A
Perigee: 585.1 km
Apogee: 1,983.9 km
Inclination: 62.8 °
Period: 111.1 minutes
Semi major axis: 7655 km
RCS: 5.8971 m2 (large)
Launch date: October 30, 1970
Source: Commonwealth of Independent States (former USSR) (CIS)
Launch site: TYURATAM MISSILE AND SPACE COMPLEX (TTMTR)
aabbcc
Your satellite tracking list
Your tracking list is empty




NASA's NSSDC Master Catalog

Two Line Element Set (TLE):
1  4598U 70091A   19261.39373402 -.00000097 +00000-0 +20728-5 0  9994
2  4598 062.8329 231.1321 0913651 266.8286 082.7935 12.96113207309136
Source of the keplerian elements: AFSPC